DHX688 EGKK-EGCC

Flight info

Callsign DHX688
Flight time 0h 36m
Altitude 24000
Route LAM N57 WELIN T420 ELVOS
Aircraft B738/M-SDE2E3FGHIRWXY/LB1

Departure

Time 2026-04-16 13:26
Airport London Gatwick Airport (EGKK)

Arrival

Time 2026-04-16 14:02
Airport Manchester Airport (EGCC)
Time Latitude Longitude Altitude Speed Heading
2026-04-16 13:04 51.15466 -0.17087 188 ft 0 kts 347°
2026-04-16 13:14 51.15461 -0.17086 188 ft 1 kts 347°
2026-04-16 13:14 51.15449 -0.17082 188 ft 1 kts 347°
2026-04-16 13:14 51.15438 -0.17078 187 ft 1 kts 348°
2026-04-16 13:15 51.15425 -0.17076 187 ft 1 kts 15°
2026-04-16 13:15 51.15418 -0.17086 187 ft 1 kts 70°
2026-04-16 13:15 51.15417 -0.17092 187 ft 0 kts 78°
2026-04-16 13:22 51.15419 -0.17082 187 ft 4 kts 78°
2026-04-16 13:22 51.15437 -0.16942 187 ft 16 kts 79°
2026-04-16 13:22 51.15444 -0.16767 192 ft 15 kts 113°
2026-04-16 13:23 51.15369 -0.16698 193 ft 11 kts 172°
2026-04-16 13:23 51.15307 -0.16784 189 ft 11 kts 237°
2026-04-16 13:23 51.15243 -0.16815 188 ft 0 kts 172°
2026-04-16 13:25 51.15230 -0.16812 188 ft 5 kts 172°
2026-04-16 13:25 51.15170 -0.16799 188 ft 11 kts 180°
2026-04-16 13:25 51.15111 -0.16887 188 ft 14 kts 256°
2026-04-16 13:25 51.15051 -0.17330 191 ft 83 kts 255°
2026-04-16 13:26 51.14855 -0.18774 242 ft 179 kts 256°
2026-04-16 13:26 51.14603 -0.20942 1089 ft 219 kts 259°
2026-04-16 13:26 51.14314 -0.23480 2245 ft 253 kts 254°
2026-04-16 13:26 51.13885 -0.26149 3613 ft 257 kts 253°
2026-04-16 13:27 51.13543 -0.28984 4025 ft 268 kts 266°
2026-04-16 13:27 51.13881 -0.31886 3984 ft 265 kts 289°
2026-04-16 13:27 51.14841 -0.34304 4099 ft 258 kts 310°
2026-04-16 13:27 51.16314 -0.36000 4621 ft 264 kts 332°
2026-04-16 13:28 51.18089 -0.36753 5470 ft 274 kts 351°
2026-04-16 13:28 51.19996 -0.36522 6330 ft 283 kts 10°
2026-04-16 13:28 51.21823 -0.35276 7205 ft 292 kts 30°
2026-04-16 13:28 51.23412 -0.33234 8084 ft 299 kts 39°
2026-04-16 13:29 51.24946 -0.30955 8959 ft 305 kts 40°
2026-04-16 13:29 51.26504 -0.28632 9828 ft 315 kts 40°
2026-04-16 13:29 51.28120 -0.26243 10700 ft 322 kts 38°
2026-04-16 13:29 51.29863 -0.23965 11574 ft 324 kts 34°
2026-04-16 13:30 51.31639 -0.21781 12442 ft 330 kts 34°
2026-04-16 13:30 51.33482 -0.19525 13322 ft 339 kts 34°
2026-04-16 13:30 51.35358 -0.17225 14194 ft 347 kts 34°
2026-04-16 13:30 51.37295 -0.14843 15074 ft 354 kts 34°
2026-04-16 13:31 51.39265 -0.12417 15955 ft 359 kts 34°
2026-04-16 13:31 51.41251 -0.09964 16831 ft 365 kts 34°
2026-04-16 13:31 51.43256 -0.07474 17707 ft 369 kts 34°
2026-04-16 13:31 51.45282 -0.04946 18586 ft 373 kts 33°
2026-04-16 13:32 51.47460 -0.02692 19460 ft 371 kts 20°
2026-04-16 13:32 51.49896 -0.01456 19975 ft 375 kts
2026-04-16 13:32 51.52491 -0.01368 20123 ft 368 kts 346°
2026-04-16 13:32 51.54900 -0.02466 20146 ft 357 kts 330°
2026-04-16 13:33 51.57132 -0.04321 20159 ft 365 kts 324°
2026-04-16 13:33 51.59351 -0.06410 20152 ft 379 kts 323°
2026-04-16 13:33 51.61619 -0.08629 20145 ft 388 kts 323°
2026-04-16 13:33 51.63931 -0.10919 20146 ft 389 kts 323°
2026-04-16 13:34 51.66253 -0.13224 20146 ft 388 kts 323°
2026-04-16 13:34 51.68557 -0.15509 20148 ft 388 kts 323°
2026-04-16 13:34 51.70838 -0.17782 20149 ft 388 kts 323°
2026-04-16 13:34 51.73159 -0.20090 20149 ft 389 kts 323°
2026-04-16 13:35 51.75449 -0.22367 20150 ft 389 kts 323°
2026-04-16 13:35 51.77753 -0.24690 20149 ft 388 kts 322°
2026-04-16 13:35 51.80030 -0.27033 20149 ft 388 kts 322°
2026-04-16 13:35 51.82307 -0.29403 20149 ft 389 kts 322°
2026-04-16 13:36 51.84557 -0.31738 20149 ft 388 kts 322°
2026-04-16 13:36 51.86836 -0.34103 20150 ft 388 kts 322°
2026-04-16 13:36 51.89113 -0.36478 20150 ft 389 kts 322°
2026-04-16 13:36 51.91362 -0.38829 20149 ft 388 kts 322°
2026-04-16 13:37 51.93631 -0.41193 20150 ft 387 kts 322°
2026-04-16 13:37 51.95866 -0.43635 20149 ft 387 kts 320°
2026-04-16 13:37 51.98091 -0.46207 20153 ft 397 kts 319°
2026-04-16 13:37 52.00352 -0.48873 20148 ft 399 kts 319°
2026-04-16 13:38 52.02596 -0.51519 20148 ft 399 kts 319°
2026-04-16 13:38 52.04837 -0.54166 20149 ft 398 kts 319°
2026-04-16 13:38 52.07086 -0.56834 20149 ft 399 kts 319°
2026-04-16 13:38 52.09321 -0.59483 20149 ft 399 kts 319°
2026-04-16 13:39 52.11563 -0.62141 20149 ft 399 kts 319°
2026-04-16 13:39 52.13809 -0.64808 20149 ft 400 kts 319°
2026-04-16 13:39 52.16049 -0.67465 20148 ft 398 kts 318°
2026-04-16 13:39 52.18293 -0.70193 20149 ft 397 kts 315°
2026-04-16 13:40 52.20213 -0.73351 20152 ft 392 kts 305°
2026-04-16 13:40 52.21579 -0.77104 20145 ft 385 kts 285°
2026-04-16 13:40 52.21833 -0.81355 20150 ft 376 kts 261°
2026-04-16 13:40 52.21365 -0.85520 20148 ft 372 kts 260°
2026-04-16 13:41 52.21281 -0.89733 20148 ft 376 kts 272°
2026-04-16 13:41 52.21829 -0.93943 20149 ft 378 kts 285°
2026-04-16 13:41 52.22966 -0.97778 20149 ft 382 kts 298°
2026-04-16 13:41 52.24663 -1.01147 20149 ft 388 kts 311°
2026-04-16 13:42 52.26824 -1.03827 20150 ft 395 kts 324°
2026-04-16 13:42 52.29348 -1.05679 20152 ft 400 kts 336°
2026-04-16 13:42 52.32025 -1.06889 20150 ft 401 kts 340°
2026-04-16 13:42 52.34735 -1.07910 20149 ft 398 kts 341°
2026-04-16 13:43 52.37443 -1.08902 20150 ft 398 kts 341°
2026-04-16 13:43 52.40140 -1.09899 20150 ft 399 kts 341°
2026-04-16 13:43 52.42826 -1.10894 20151 ft 399 kts 341°
2026-04-16 13:43 52.45372 -1.12537 20164 ft 383 kts 326°
2026-04-16 13:44 52.47784 -1.14379 20148 ft 382 kts 334°
2026-04-16 13:44 52.50258 -1.15958 20148 ft 378 kts 329°
2026-04-16 13:44 52.52572 -1.17998 20150 ft 376 kts 324°
2026-04-16 13:44 52.54831 -1.20179 20150 ft 377 kts 323°
2026-04-16 13:45 52.57086 -1.22392 20148 ft 376 kts 323°
2026-04-16 13:45 52.59306 -1.24566 20150 ft 375 kts 323°
2026-04-16 13:45 52.61563 -1.26773 20093 ft 377 kts 323°
2026-04-16 13:45 52.63799 -1.28971 19683 ft 376 kts 323°
2026-04-16 13:46 52.66032 -1.31171 18957 ft 369 kts 323°
2026-04-16 13:46 52.68198 -1.33306 18127 ft 360 kts 324°
2026-04-16 13:46 52.70310 -1.35381 17302 ft 353 kts 324°
2026-04-16 13:46 52.72390 -1.37427 16473 ft 346 kts 324°
2026-04-16 13:47 52.74455 -1.39477 15674 ft 339 kts 323°
2026-04-16 13:47 52.76406 -1.41407 15269 ft 322 kts 324°
2026-04-16 13:47 52.78278 -1.43246 15158 ft 303 kts 324°
2026-04-16 13:47 52.80069 -1.44995 15152 ft 299 kts 324°
2026-04-16 13:48 52.81897 -1.46758 15003 ft 309 kts 326°
2026-04-16 13:48 52.83827 -1.48249 14928 ft 298 kts 332°
2026-04-16 13:48 52.85696 -1.49563 14312 ft 296 kts 331°
2026-04-16 13:48 52.87575 -1.50979 13597 ft 296 kts 330°
2026-04-16 13:49 52.89420 -1.52385 13007 ft 293 kts 330°
2026-04-16 13:49 52.91251 -1.53790 12388 ft 290 kts 329°
2026-04-16 13:49 52.93053 -1.55307 11762 ft 287 kts 327°
2026-04-16 13:49 52.94794 -1.56829 11266 ft 281 kts 327°
2026-04-16 13:50 52.96500 -1.58317 11154 ft 278 kts 327°
2026-04-16 13:50 52.98243 -1.59845 11152 ft 287 kts 327°
2026-04-16 13:50 53.00015 -1.61410 11150 ft 290 kts 327°
2026-04-16 13:50 53.01801 -1.62990 11149 ft 290 kts 327°
2026-04-16 13:51 53.03574 -1.64654 11149 ft 288 kts 321°
2026-04-16 13:51 53.05072 -1.66741 11151 ft 284 kts 312°
2026-04-16 13:51 53.06524 -1.69021 11151 ft 285 kts 310°
2026-04-16 13:51 53.07909 -1.71349 11151 ft 283 kts 308°
2026-04-16 13:52 53.09295 -1.73705 11147 ft 285 kts 312°
2026-04-16 13:52 53.10948 -1.75530 11123 ft 293 kts 329°
2026-04-16 13:52 53.12924 -1.76554 10808 ft 300 kts 342°
2026-04-16 13:52 53.14963 -1.77190 10100 ft 303 kts 344°
2026-04-16 13:53 53.17040 -1.77817 9227 ft 306 kts 344°
2026-04-16 13:53 53.19142 -1.78471 8348 ft 307 kts 344°
2026-04-16 13:53 53.21224 -1.79131 7480 ft 308 kts 344°
2026-04-16 13:53 53.23323 -1.79797 6652 ft 306 kts 344°
2026-04-16 13:54 53.25367 -1.80442 6253 ft 290 kts 344°
2026-04-16 13:54 53.27256 -1.81030 6153 ft 266 kts 344°
2026-04-16 13:54 53.29015 -1.81565 6150 ft 247 kts 344°
2026-04-16 13:54 53.30613 -1.82348 6152 ft 237 kts 327°
2026-04-16 13:55 53.31995 -1.83862 6106 ft 238 kts 319°
2026-04-16 13:55 53.33351 -1.85480 5723 ft 242 kts 320°
2026-04-16 13:55 53.34717 -1.87110 5248 ft 237 kts 320°
2026-04-16 13:55 53.36024 -1.88671 4948 ft 224 kts 320°
2026-04-16 13:56 53.37265 -1.90163 4588 ft 218 kts 320°
2026-04-16 13:56 53.38489 -1.91649 4079 ft 220 kts 320°
2026-04-16 13:56 53.39740 -1.93185 3550 ft 221 kts 320°
2026-04-16 13:56 53.40930 -1.94660 3535 ft 207 kts 320°
2026-04-16 13:57 53.42109 -1.96137 3573 ft 215 kts 319°
2026-04-16 13:57 53.43299 -1.97613 3573 ft 216 kts 320°
2026-04-16 13:57 53.44518 -1.99152 3573 ft 216 kts 319°
2026-04-16 13:58 53.46616 -2.02249 3569 ft 187 kts 295°
2026-04-16 13:58 53.46885 -2.04329 3565 ft 183 kts 263°
2026-04-16 13:58 53.46430 -2.06288 3393 ft 184 kts 230°
2026-04-16 13:58 53.45413 -2.07543 3111 ft 180 kts 205°
2026-04-16 13:59 53.44391 -2.08698 2882 ft 180 kts 227°
2026-04-16 13:59 53.43638 -2.10365 2626 ft 179 kts 230°
2026-04-16 13:59 53.42865 -2.11945 2382 ft 175 kts 229°
2026-04-16 13:59 53.42106 -2.13523 2151 ft 173 kts 230°
2026-04-16 14:00 53.41369 -2.15053 1994 ft 157 kts 230°
2026-04-16 14:00 53.40687 -2.16468 1686 ft 154 kts 230°
2026-04-16 14:00 53.40008 -2.17878 1505 ft 158 kts 229°
2026-04-16 14:00 53.39317 -2.19313 1288 ft 156 kts 230°
2026-04-16 14:01 53.38642 -2.20687 1037 ft 149 kts 229°
2026-04-16 14:01 53.38017 -2.21967 893 ft 130 kts 230°
2026-04-16 14:01 53.37464 -2.23150 716 ft 127 kts 232°
2026-04-16 14:01 53.36921 -2.24308 568 ft 125 kts 230°
2026-04-16 14:02 53.36369 -2.25424 361 ft 119 kts 228°
2026-04-16 14:02 53.35885 -2.26423 269 ft 93 kts 228°
2026-04-16 14:02 53.35532 -2.27159 256 ft 79 kts 229°
2026-04-16 14:02 53.35273 -2.27763 241 ft 48 kts 255°
2026-04-16 14:03 53.35236 -2.28111 236 ft 0 kts 272°
2026-04-16 14:03 53.35245 -2.28166 236 ft 14 kts 310°
2026-04-16 14:04 53.35383 -2.28173 236 ft 29 kts 12°
2026-04-16 14:04 53.35566 -2.28027 239 ft 29 kts 52°
2026-04-16 14:04 53.35703 -2.27882 239 ft 30 kts
2026-04-16 14:04 53.35829 -2.27855 239 ft 16 kts
2026-04-16 14:05 53.35947 -2.27833 239 ft 9 kts
2026-04-16 14:05 53.36080 -2.27871 238 ft 26 kts 314°
2026-04-16 14:05 53.36192 -2.28067 233 ft 21 kts 314°
2026-04-16 14:05 53.36345 -2.28329 220 ft 26 kts 326°
2026-04-16 14:06 53.36422 -2.28441 216 ft 17 kts 310°
2026-04-16 14:06 53.36464 -2.28546 215 ft 7 kts 258°
2026-04-16 14:06 53.36401 -2.28606 218 ft 12 kts 218°
2026-04-16 14:06 53.36385 -2.28636 219 ft 0 kts 229°